Preview of NWS' New Version of Forecast
This preview is not operational and should not be used for support decisions.

Regional Weather Roundup (RWR)

Issued by National Weather Service (NWS)

                            
000
ASUS43 KDMX 232001
RWRIA 

WEATHER ROUNDUP FOR IOWA
NATIONAL WEATHER SERVICE DES MOINES IA
300 PM CDT TUE APR 23 2019

NOTE: "FAIR" INDICATES FEW OR NO CLOUDS BELOW 12,000 FEET WITH NO
SIGNIFICANT WEATHER AND/OR OBSTRUCTIONS TO VISIBILITY.

* - THESE STATIONS ARE NOT NWS STATIONS...THUS NOT UNDER NWS
QUALITY CONTROL.  THEY ALSO DO NOT REPORT WEATHER SUCH 
AS PRECIPITATION OR FOG.  

IAZ001>003-012>014-020>022-031>034-043>046-232100-
   NORTHWEST IOWA
  
CITY           SKY/WX    TMP DP  RH WIND       PRES   REMARKS
CARROLL *      SUNNY     66  32  28 NE10G22   30.06F                  
CHEROKEE *     SUNNY     65  34  32 E9        30.08F                  
DENISON *      SUNNY     66  28  24 NE10G18   30.07F                  
LE MARS *        N/A    N/A N/A N/A MISG        N/A                   
SHELDON *      SUNNY     63  36  36 VRB5      30.07F                  
SIOUX CITY     SUNNY     66  33  29 E8        30.08F                  
SPENCER        SUNNY     66  36  32 MISG      30.09F                  
STORM LAKE *     N/A     63  30  29 NE10      30.05F                  
$$
 
IAZ055>058-069>071-079>083-090>094-232100-
   SOUTHWEST IOWA
  
CITY           SKY/WX    TMP DP  RH WIND       PRES   REMARKS
ATLANTIC *     CLOUDY    64  37  36 E12G20    30.05F                  
AUDUBON *      CLOUDY    64  36  34 CALM      30.07F                  
CLARINDA *     MOSUNNY   64  41  42 VRB7      30.07F                  
COUNCIL BLFS * SUNNY     66  27  22 NE13G20   30.05F                  
CRESTON *      MOSUNNY   63  36  36 E12G17    30.05F                  
HARLAN  *      SUNNY     66  28  24 E12G22    30.06F                  
LAMONI         PTSUNNY   56  46  69 VRB6      30.06F                  
RED OAK *      CLOUDY    66  36  32 E15       30.04F                  
SHENANDOAH *   MOSUNNY   66  41  39 E10G17    30.04F                  
$$
 
IAZ047>049-059>061-072>074-084-232100-
   CENTRAL IOWA
  
CITY           SKY/WX    TMP DP  RH WIND       PRES   REMARKS
AMES           SUNNY     65  38  36 NE13G20   30.06F                  
ANKENY *       MOSUNNY   64  37  36 E12G21    30.07F                  
BOONE *        SUNNY     64  39  39 NE15      30.06F                  
CHARITON *     CLOUDY    59  46  63 VRB6      30.06F                  
DES MOINES     CLOUDY    65  36  34 E13G21    30.05F                  
GRINNELL*      CLOUDY    65  36  34 NE12G18   30.07F                  
KNOXVILLE *    CLOUDY    61  41  48 NE8       30.05F                  
MARSHALLTOWN   SUNNY     66  39  37 NE15G23   30.05F                  
NEWTON *       SUNNY     64  37  36 NE14      30.05F                  
PELLA *        MOSUNNY   65  35  32 NE8       30.07F                  
PERRY *        FAIR      65  33  30 E9G17     30.06F                  
$$
 
IAZ004>006-015-016-023>025-035-036-232100-
   NORTH CENTRAL IOWA
  
CITY           SKY/WX    TMP DP  RH WIND       PRES   REMARKS
ALGONA *       SUNNY     64  34  32 E8G15     30.08F                  
CLARION *      SUNNY     66  32  28 VRB7G16   30.08F                  
ESTHERVILLE    SUNNY     63  34  33 NE9       30.09F                  
FORT DODGE *   SUNNY     66  34  30 E14       30.07F                  
MASON CITY     SUNNY     64  36  35 NE9G28    30.09F                  
FOREST CITY *  FAIR      63  32  31 E6        30.08F                  
IOWA FALLS *   FAIR      64  39  39 NE9G16    30.09F                  
$$

IAZ007>011-017>019-026>030-037>042-050>054-066-232100-
   NORTHEAST IOWA
  
CITY           SKY/WX    TMP DP  RH WIND       PRES   REMARKS
CEDAR RAPIDS   FAIR      64  42  44 VRB7      30.04F                  
CHARLES CITY * FAIR      64  34  32 NE10      30.08F                  
CLINTON *      FAIR      62  46  55 NE9       30.05F                  
DECORAH *      FAIR      63  34  34 N10       30.05F                  
DUBUQUE        FAIR      62  40  44 NE7       30.05F                  
MONTICELLO *   FAIR      63  43  48 VRB7G15   30.05F                  
OELWEIN *      FAIR      63  39  42 N10       30.07F                  
WATERLOO       FAIR      66  40  38 NE13G20   30.06F                  
$$
 
IAZ064-065-067-068-078-232100-
   EAST CENTRAL IOWA
  
CITY           SKY/WX    TMP DP  RH WIND       PRES   REMARKS
DAVENPORT        N/A    N/A N/A N/A MISG      30.07F                  
IOWA CITY      FAIR      63  43  48 N10       30.06F                  
MT. PLEASANT * CLOUDY    59  46  63 CALM      30.07F                  
MUSCATINE *    FAIR      61  46  59 E7G16     30.06F                  
QUAD CITIES      N/A     63  46  54 E5        30.05F                  
$$
 
IAZ062-063-075>077-085>089-095>099-232100-
   SOUTHEAST IOWA
  
CITY           SKY/WX    TMP DP  RH WIND       PRES   REMARKS
BURLINGTON     CLOUDY    56  46  69 E5        30.06F                  
FAIRFIELD *    CLOUDY    57  45  62 E7        30.06F                  
FORT MADISON * CLOUDY    55  48  76 N3        30.08S                  
KEOKUK *       CLOUDY    54  48  82 NE3       30.07F                  
OSKALOOSA *    FAIR      62  42  48 E8        30.06F                  
CENTERVILLE *  PTSUNNY   54  46  76 E5        30.09F                  
OTTUMWA        CLOUDY    59  44  57 VRB3      30.06F                  
WASHINGTON *   CLOUDY    61  46  59 VRB6      30.07F                  
$$

ABBREVIATIONS USED IN REMARKS
   TC - TEMPERATURES IN CELSIUS
  WCI - WIND CHILL INDEX
   HX - HEAT INDEX
  VSB - VISIBILITY  
$$